Torna al catalogo

FREGAT RB/CLUSTER 2

AttivoScienzaHEO
NORAD 26106·PAYLOAD·🇷🇺 Russia

Lanciato Mar 20, 2000 da Baikonur Cosmodrome

Loading…

Prossimi Passaggi (prossime 24 ore)

TLE

AggiornatoSource: Space-Track

Epoca: Sep 13, 2026, 19:40 UTC

1 26106U 00015A   26256.81965102  .00000018  00000-0  46237-4 0  9999
2 26106  65.1037  92.5455 5467407 258.8295  38.0407  4.61259870442296

Traccia FREGAT RB/CLUSTER 2 in tempo reale con AllMySat

Download on the App Store